St. John's, Canada

8:18 AM NDT on May 24, 2018 (GMT -0230)
St. John's International

Weather History for CYYT - January, 2014

Change the Weather History Date:

Sunday, January 26, 2014

  Actual Average Record
Temperature  
Mean Temperature 28 °F -  
Max Temperature 42 °F 29 °F 55 °F (2000)
Min Temperature 15 °F 16 °F 5 °F (2008)
Degree Days  
Heating Degree Days 36    
Moisture  
Dew Point 28 °F    
Average Humidity 88    
Maximum Humidity 100    
Minimum Humidity 68    
Precipitation  
Precipitation 0.83 in 0.18 in - ()
Sea Level Pressure  
Sea Level Pressure 29.82 in    
Wind  
Wind Speed 24 mph ()    
Max Wind Speed 44 mph    
Max Gust Speed 58 mph    
Visibility 9.4 miles    
Events Rain , Snow    
Averages and records for this station are not official NWS values.
T = Trace of Precipitation, MM = Missing Value Source: Averaged Metar Reports

Daily Weather History Graph

Daily Weather History Graph

Search for Another Location

Airport or City:

Astronomy

Jan. 26, 2014 Rise Set
Actual Time 7:34 AM NST 4:52 PM NST
Civil Twilight 7:01 AM NST 5:26 PM NST
Nautical Twilight 6:23 AM NST 6:03 PM NST
Astronomical Twilight 5:47 AM NST 6:40 PM NST
Moon 3:06 AM NST (1/26) 12:34 PM NST (1/26)
Length of Visible Light 10h 25m
Length of Day
9h 17m
Waning Crescent, 24% of the Moon is Illuminated
Jan 26
Waning Crescent
Jan 30
New
Feb 6
First Quarter
Feb 14
Full
Feb 22
Last Quarter

Hourly Weather History & Observations

Time (NST) Temp. Windchill Dew Point Humidity Pressure Visibility Wind Dir Wind Speed Gust Speed Precip Events Conditions
12:30 AM 21.2 °F 10.9 °F 15.8 °F 80% 30.38 in 15.0 mi South 9.2 mph - N/A   Mostly Cloudy
1:30 AM 21.2 °F 11.7 °F 15.8 °F 80% 30.36 in 15.0 mi SSE 8.1 mph - N/A   Scattered Clouds
2:30 AM 25 °F - 19 °F 68% 30.33 in 15 mi South 23.0 mph - -   Scattered Clouds
2:30 AM 24.8 °F 10.0 °F 19.4 °F 80% 30.33 in 15.0 mi South 21.9 mph 31.1 mph N/A   Mostly Cloudy
3:30 AM 24.8 °F 9.3 °F 21.2 °F 86% 30.29 in 15.0 mi SSE 24.2 mph 32.2 mph N/A   Mostly Cloudy
4:30 AM 26.6 °F 9.1 °F 21.2 °F 80% 30.25 in 15.0 mi SSE 35.7 mph 43.7 mph N/A   Mostly Cloudy
5:30 AM 26.6 °F 10.3 °F 23.0 °F 86% 30.21 in 15.0 mi SSE 29.9 mph 46.0 mph N/A   Mostly Cloudy
6:30 AM 26.6 °F 10.0 °F 23.0 °F 86% 30.17 in 15.0 mi SSE 31.1 mph 36.8 mph N/A   Overcast
7:30 AM 26.6 °F 9.8 °F 24.8 °F 93% 30.13 in 15.0 mi SSE 32.2 mph 42.6 mph N/A   Overcast
8:30 AM 29 °F - 26 °F 84% 30.06 in 15 mi SSE 32.2 mph - -   Overcast
8:30 AM 28.4 °F 12.0 °F 26.6 °F 93% 30.06 in 15.0 mi SSE 33.4 mph 44.9 mph N/A   Overcast
9:08 AM 28.4 °F 11.8 °F 26.6 °F 93% 30.03 in 6.0 mi SSE 34.5 mph 43.7 mph N/A Snow Light Snow Showers
9:30 AM 28.4 °F 13.5 °F 26.6 °F 93% 30.01 in 4.0 mi SE 26.5 mph - N/A Snow Light Snow Showers
10:03 AM 30.2 °F 14.7 °F 28.4 °F 93% 29.97 in 2.0 mi SE 32.2 mph 48.3 mph N/A Snow Light Snow
10:15 AM 30.2 °F 15.4 °F 28.4 °F 93% 29.96 in 1.2 mi SE 28.8 mph 46.0 mph N/A Snow Light Snow
10:30 AM 30.2 °F 15.2 °F 28.4 °F 93% 29.95 in 1.5 mi SSE 29.9 mph 41.4 mph N/A Snow Light Snow
10:43 AM 30.2 °F 15.7 °F 28.4 °F 93% 29.94 in 1.5 mi SSE 27.6 mph 39.1 mph N/A Rain , Snow Light Freezing Rain
11:00 AM 30.2 °F 14.9 °F 30.2 °F 100% 29.91 in 1.5 mi SE 31.1 mph 43.7 mph N/A Rain , Snow Light Freezing Rain
11:30 AM 32.0 °F 18.4 °F 30.2 °F 93% 29.86 in 1.5 mi SSE 26.5 mph 47.2 mph N/A Rain Light Freezing Rain
11:50 AM 32.0 °F 17.6 °F 32.0 °F 100% 29.83 in 1.5 mi SSE 29.9 mph 44.9 mph N/A Rain Light Rain
12:30 PM 33.8 °F 19.6 °F 32.0 °F 93% 29.73 in 1.5 mi SSE 32.2 mph 48.3 mph N/A Rain Light Rain
1:30 PM 35.6 °F 20.3 °F 33.8 °F 93% 29.58 in 1.5 mi SSE 43.7 mph 57.5 mph N/A Rain Light Rain
1:47 PM 35.6 °F 21.0 °F 33.8 °F 93% 29.55 in 1.5 mi SSE 39.1 mph 57.5 mph N/A Rain Rain
2:30 PM 36 °F - 35 °F 96% 29.47 in 1 mi SSE 40.3 mph - - Rain Heavy Rain
2:30 PM 35.6 °F 21.3 °F 35.6 °F 100% 29.47 in 1.5 mi SSE 36.8 mph 55.2 mph N/A Rain Heavy Rain
3:30 PM 37.4 °F 24.8 °F 37.4 °F 100% 29.38 in 1.5 mi South 31.1 mph 44.9 mph N/A Rain Heavy Rain
4:30 PM 42.8 °F 31.4 °F 41.0 °F 93% 29.34 in 3.0 mi South 35.7 mph 44.9 mph N/A Rain Light Rain
5:11 PM 41.0 °F 32.2 °F 39.2 °F 93% 29.34 in 15.0 mi WSW 18.4 mph 33.4 mph N/A Rain Light Rain
5:30 PM 39.2 °F 27.2 °F 37.4 °F 93% 29.37 in 15.0 mi WSW 31.1 mph 46.0 mph N/A Rain Light Rain
6:15 PM 35.6 °F 23.2 °F 30.2 °F 81% 29.37 in 15.0 mi WSW 26.5 mph 44.9 mph N/A   Overcast
6:30 PM 33.8 °F 18.8 °F 28.4 °F 81% 29.39 in 15.0 mi WSW 36.8 mph 48.3 mph N/A   Overcast
7:30 PM 32.0 °F 17.9 °F 26.6 °F 80% 29.43 in 15.0 mi WSW 28.8 mph 50.6 mph N/A   Mostly Cloudy
8:30 PM 31 °F - 26 °F 73% 29.50 in 15 mi WSW 31.1 mph - -   Partly Cloudy
8:30 PM 32.0 °F 17.4 °F 24.8 °F 75% 29.50 in 15.0 mi WSW 31.1 mph 42.6 mph N/A   Overcast
9:30 PM 30.2 °F - 24.8 °F 80% 29.57 in 15.0 mi North - - N/A   Mostly Cloudy
10:30 PM 30.2 °F 15.7 °F 24.8 °F 80% 29.61 in 15.0 mi WSW 27.6 mph 51.8 mph N/A   Mostly Cloudy
11:30 PM 30.2 °F 15.9 °F 23.0 °F 75% 29.64 in 15.0 mi WSW 26.5 mph 36.8 mph N/A   Mostly Cloudy